This is the latest recevied weather packets stored in our database for station/object KI6PPU. If no packets are shown the sender has not sent any weather packets the latest 10 day(s).
| Time | Temp. | Humidity | Pressure | Rain* | Wind** | Luminosity | Snow |
|---|---|---|---|---|---|---|---|
| 1778031889 | 15° C | 83% | 1017.7 hPa | 0 mm | - | 61 W/m² | - |
| 1778031585 | 15° C | 83% | 1018 hPa | 0 mm | - | 71 W/m² | - |
| 1778031284 | 15° C | 83% | 1017.8 hPa | 0 mm | - | 60 W/m² | - |
| 1778030979 | 15° C | 83% | 1018 hPa | 0 mm | - | 59 W/m² | - |
| 1778030676 | 15° C | 83% | 1017.9 hPa | 0 mm | - | 62 W/m² | - |
| 1778030373 | 15° C | 84% | 1018 hPa | 0 mm | - | 62 W/m² | - |
| 1778030071 | 15° C | 85% | 1017.9 hPa | 0 mm | - | 65 W/m² | - |
| 1778029767 | 15° C | 86% | 1017.8 hPa | 0 mm | - | 69 W/m² | - |
| 1778029466 | 15° C | 85% | 1017.8 hPa | 0 mm | - | 75 W/m² | - |
| 1778029162 | 15° C | 86% | 1017.8 hPa | 0 mm | - | 57 W/m² | - |
| 1778028860 | 15° C | 86% | 1018.1 hPa | 0 mm | - | 43 W/m² | - |
| 1778028555 | 15° C | 85% | 1017.9 hPa | 0 mm | - | 38 W/m² | - |
| 1778028253 | 15° C | 85% | 1018 hPa | 0 mm | - | 34 W/m² | - |
| 1778027949 | 14.44° C | 85% | 1017.7 hPa | 0 mm | - | 35 W/m² | - |
| 1778027645 | 15° C | 85% | 1017.7 hPa | 0 mm | - | 35 W/m² | - |
| 1778027342 | 15° C | 86% | 1017.8 hPa | 0 mm | - | 31 W/m² | - |
| 1778027038 | 15° C | 86% | 1017.8 hPa | 0 mm | - | 33 W/m² | - |
| 1778026734 | 15° C | 86% | 1017.8 hPa | 0 mm | - | 34 W/m² | - |
| 1778026431 | 15° C | 86% | 1017.9 hPa | 0 mm | - | 34 W/m² | - |
| 1778026128 | 15° C | 85% | 1017.7 hPa | 0 mm | - | 34 W/m² | - |
| 1778025826 | 15° C | 86% | 1017.7 hPa | 0 mm | - | 34 W/m² | - |
| 1778025522 | 15° C | 85% | 1017.6 hPa | 0 mm | - | 35 W/m² | - |
| 1778025220 | 15° C | 86% | 1017.6 hPa | 0 mm | - | 34 W/m² | - |
| 1778024916 | 15° C | 85% | 1017.6 hPa | 0 mm | - | 34 W/m² | - |
| 1778024615 | 15° C | 85% | 1017.5 hPa | 0 mm | - | 34 W/m² | - |
* Rain latest hour (hover to see other rain measurements)
** Current wind speed in m/s (hover to see current wind gust speed)